Regional Weather Roundup
Issued by NWS

Home | Current Version | Previous Version | Graphics & Text | Print | Product List | Glossary On
Versions: 1 2 3 4 5 6 7 8 9 10 11 12 13 14 15 16 17 18 19 20 21 22 23 24 25 26 27 28 29 30 31 32 33 34 35 36 37 38 39 40 41 42 43 44 45 46 47 48 49 50
000
ASUS44 KMEG 240500
RWRTN
TENNESSEE HOURLY STATE WEATHER ROUNDUP
NATIONAL WEATHER SERVICE MEMPHIS TN
1200 AM CDT THU MAY 24 2018

TNZ002-004-019-021-049-052-054-088>092-240600-
WEST TENNESSEE

CITY           SKY/WX    TMP DP  RH WIND       PRES   REMARKS
MEMPHIS INTL   CLOUDY    75  71  87 NW3       30.09R
NWS MEMPHIS      N/A     73 N/A N/A MISG        N/A
JACKSON        FAIR      72  70  93 CALM      30.09R
DYERSBURG      FAIR      75  68  78 NE3       30.10R
$$

TNZ008-025-027-028-033-062-065-066-240600-
NORTH MIDDLE TENNESSEE

CITY           SKY/WX    TMP DP  RH WIND       PRES   REMARKS
NASHVILLE      MOCLDY    71  65  81 CALM      30.10F
CLARKSVILLE    FAIR      71  64  78 CALM      30.10S
SMYRNA         FAIR      69  66  90 CALM      30.11S
CROSSVILLE     FAIR      65  61  87 CALM      30.16S
$$

TNZ061-075-076-078-094-096-097-240600-
SOUTH MIDDLE TENNESSEE

CITY           SKY/WX    TMP DP  RH WIND       PRES   REMARKS
$$

TNZ017-018-042-046-047-240600-
NORTHEAST TENNESSEE

CITY           SKY/WX    TMP DP  RH WIND       PRES   REMARKS
TRI CITIES     FAIR      67  63  87 CALM      30.14S
$$

TNZ012-013-036-069-073-074-240600-
CENTRAL EAST TENNESSEE

CITY           SKY/WX    TMP DP  RH WIND       PRES   REMARKS
KNOXVILLE      MOCLDY    72  66  81 E3        30.10R
OAK RIDGE      FAIR      71  66  84 CALM      30.12R
$$

TNZ083-085-099-240600-
SOUTHEAST TENNESSEE

CITY           SKY/WX    TMP DP  RH WIND       PRES   REMARKS
CHATTANOOGA    FAIR      75  66  73 CALM      30.09R
$$

SKY/WX REPORTED AS FAIR MEANS FEW OR NO CLOUDS BELOW
12 THOUSAND FEET.




USA.gov is the U.S. government's official web portal to all federal, state and local government web resources and services.